TITAN 3C TRANSTAGE DEB, 5991

Orbit data source: Space-Track

TITAN 3C TRANSTAGE DEB, 5991 is space debris in HEO originally from a launch on Tue, 21 Dec 1965 UTC launched from the Air Force Eastern Test Range (AFETR). Debris objects in space refer to the collection of defunct objects orbiting the Earth. Examples of debris include non-operational satellites, rocket bodies, and fragments generated from explosions, collisions, or faulty payload assembly.

Loading next visibility...
Identifier
5991, 1965-108R
Orbit
HEO
Country
Flag of USUS
Related business
Manufacturer
Unknown
Mission
Spacecraft
Bus & Motor
Unknown
Mass
Unknown
Launch date (UTC)
1965-12-21 (61 years ago)
Launch vehicle
Unknown
Launch site
Air Force Eastern Test Range (AFETR)
Object type
Payload
Rocket body
Debris
Shape & HBR
Unknown shape, 0.2 m
Radar Cross Section
Medium (>0.1 m² and <1 m²)

Expand to show TLE details & history
Last TLE update: 3 days ago

TLE from 3 days ago
0 TITAN 3C TRANSTAGE DEB
1 05991U 65108R   26170.58058061 -.00000037  00000-0  00000-0 0  9994
2 05991  27.6162 266.1310 6583148 217.6389  77.8654  2.63637815117489
Epoch: 2026-06-19T13:56Z
TLE epoch observation values (Epoch: 2026-06-19T13:56:02.164Z)
Latitude
1.8229°
Longitude
152.84008°
Altitude
21,389.189 km
Speed
3.271 km/s
True Right ascension
17h 58m 37s
True Declination
1° 49' 12"
Sunlit
Object was in daylight at epoch
Visualization orbit readout
Latitude
Unknown
Longitude
Unknown
Altitude
Unknown
Speed
Unknown
Apparent Right ascension
Unknown
Apparent Declination
Unknown
Sunlit
N/A
Visualization observer readout
Local Sidereal Time
22:02:51
Azimuth
Unknown
Elevation
Unknown
Doppler factor
Unknown
Orbital elements
Apogee altitude
30,332.562 km
Perigee altitude
1,185.869 km
Semi-major axis
22,137.352 km
Eccentricity
0.65831
Inclination
27.6162°
RAAN
266.131°
Arg. of periapsis
217.6389°
True anomaly
146.35702°
Mean anomaly
77.8654°
Eccentric anomaly
112.66993°
Mean motion
0.65895 °/min
Orbital period
546.32 mins
BSTAR
0
Loading maneuver chart data...
Computing Atmospheric mass density...

Documentation

Showing up to 5 results
|